Lid_Strength_Index
3 3 3 3 3 3 3 3 2 2 2 2 2 2 2 2 3 5 9 5 4 -3 -1 1 1 2 2 4 3 3 8 10 10 10 10 6 8 6 4 6 5 5 4 3 2
3 3 3 3 3 3 3 3 3 3 3 2 2 2 2 1 5 7 3 -2 -2 -2 4 5 5 4 4 5 4 5 8 9 7 7 8 7 7 7 7 7 7 6 4 3 2
3 3 3 3 3 3 3 3 3 3 3 3 2 2 2 2 7 7 -2 -1 -2 -2 4 4 4 4 5 5 5 6 8 7 7 6 6 7 7 6 7 8 7 7 5 4 3
2 3 3 3 3 3 3 3 3 3 3 3 2 2 2 3 9 5 -2 -1 -2 2 5 5 4 5 6 6 6 7 6 6 6 6 6 7 6 7 7 6 4 4 4 4 4
2 3 3 3 3 3 3 3 3 3 3 3 2 2 3 9 8 5 -1 -2 1 4 6 5 4 5 6 6 6 6 6 6 6 6 6 6 7 7 7 5 4 4 4 4 4
2 2 3 3 3 3 3 3 3 3 3 3 2 2 6 10 6 5 5 5 4 5 5 4 4 4 5 6 6 5 6 6 6 6 6 7 7 6 6 4 5 5 4 4 4
3 2 2 3 3 3 3 3 3 3 3 2 2 2 8 9 5 5 6 7 5 4 5 4 3 4 4 6 5 5 8 7 7 7 7 6 9 8 5 5 5 5 5 4 4
3 3 3 3 3 3 3 4 4 3 2 2 2 4 9 7 6 4 6 7 6 5 4 3 3 4 5 5 5 7 7 10 7 7 7 7 11 7 5 6 6 5 5 4 4
3 3 4 3 4 4 4 4 3 2 2 2 4 6 9 4 6 5 6 7 6 6 5 3 4 5 5 6 8 8 10 10 9 6 7 8 10 7 5 6 6 6 5 5 4
3 4 4 4 4 4 5 4 4 3 2 2 4 9 7 7 6 5 4 6 7 6 5 5 5 6 6 7 11 10 10 9 9 8 7 9 9 7 6 6 6 6 5 5 4
3 4 4 4 5 5 5 7 6 7 6 7 9 10 8 5 5 5 5 6 6 6 6 7 7 8 7 7 7 8 9 9 7 6 8 9 9 8 7 6 7 6 6 5 4
3 4 4 4 5 5 6 7 6 6 8 6 6 7 7 6 7 6 5 6 7 8 7 7 8 7 6 7 7 8 9 9 7 7 8 9 9 8 7 7 6 6 6 5 4
3 3 4 5 5 5 7 7 5 5 8 8 7 7 7 6 7 7 6 6 7 8 7 8 8 7 7 8 8 8 9 9 9 8 8 9 10 9 7 6 6 5 5 4 5
3 3 4 5 5 7 6 5 5 5 10 10 9 7 7 7 8 5 6 6 6 8 8 8 7 8 8 8 8 9 8 9 9 9 10 8 12 10 9 8 7 6 5 5 4
3 3 4 5 6 6 6 5 5 8 14 9 8 5 7 8 8 7 6 6 7 7 6 8 8 8 8 8 7 9 8 9 9 9 10 10 11 9 9 10 8 7 6 5 4
3 3 4 5 6 5 5 5 6 11 15 10 8 8 8 8 8 8 7 6 6 6 6 6 7 7 6 6 8 8 9 9 9 9 12 10 11 10 10 10 8 6 5 5 5
4 4 5 4 4 4 4 6 10 13 10 10 9 9 9 9 9 9 8 8 9 10 9 8 8 7 6 7 8 8 9 11 12 12 12 10 11 9 8 7 7 7 6 5 5
5 6 5 5 4 4 5 7 13 12 10 8 9 10 10 10 9 10 9 9 9 8 9 9 10 7 6 6 7 9 9 11 14 13 11 10 12 9 8 7 6 6 5 5 5
6 5 5 4 4 4 6 10 11 11 8 9 9 10 10 10 10 10 10 10 8 7 9 9 9 7 6 6 6 9 10 9 11 11 12 11 10 8 7 8 7 7 6 6 5
6 6 5 4 4 5 7 11 9 9 8 9 11 9 10 10 10 11 10 9 9 8 6 8 10 8 6 6 7 8 8 11 10 14 15 13 13 11 10 9 8 8 7 6 5
6 5 4 4 5 5 9 9 8 7 7 9 10 10 10 10 9 10 10 9 9 8 7 7 8 8 7 7 8 8 9 10 9 10 13 14 12 8 8 8 8 7 7 6 5
7 7 4 4 7 8 8 8 8 7 7 7 8 8 9 9 9 9 10 9 8 8 9 7 8 9 8 6 7 8 9 9 11 12 12 11 11 7 7 7 7 7 6 5 5
7 6 3 4 9 8 8 7 7 6 7 7 8 8 8 9 10 9 8 7 8 8 8 7 9 11 10 8 8 8 9 9 9 9 12 12 10 8 7 8 7 7 6 6 5
6 8 5 4 6 7 8 8 8 6 7 6 6 6 8 9 8 9 8 7 8 7 3 5 8 9 11 9 7 8 8 8 8 10 10 10 8 10 9 9 8 7 6 6 6
6 8 6 9 7 7 7 8 9 10 7 6 7 7 8 10 9 9 8 7 6 6 6 7 9 8 8 7 7 8 8 8 9 8 10 8 10 7 8 8 7 6 6 6 6
7 7 7 7 7 8 9 9 9 9 8 9 9 8 8 10 8 8 8 7 7 6 8 8 8 8 8 8 8 9 7 8 8 8 8 9 9 7 6 6 7 7 6 6 6
7 7 7 8 8 9 9 9 9 8 7 6 7 8 9 8 6 6 5 5 6 7 8 8 8 9 10 8 9 10 8 8 8 7 8 10 7 7 8 8 7 7 6 6 5